Location: Newark
(44.3681°N, 100.3364°W)
Time: 11:27:34
(UTC+00:00)

Vanguard 1 - Pass Details

Date: 25 February 2020
Orbit: 649 x 3833 km, 34.2° (Epoch: 07 April)

Event Time Altitude Azimuth Distance (km) Brightness Sun altitude
Rises 18:17:47 0° 273° (W) 7,499 14.4 35.9°
Reaches altitude 10° 18:23:40 10° 269° (W) 6,091 14.1 36.1°
Maximum altitude 18:39:20 45° 205° (SSW) 2,701 13.8 36.4°
Drops below altitude 10° 18:48:15 10° 136° (SE) 3,544 13.7 36.5°
Sets 18:50:44 0° 129° (SE) 4,215 13.8 36.6°
